Location: *
(50.3194°N, 7.1067°E)
Time: 21:05:44
(UTC+00:00)

Cosmos 389 Rocket - Pass Details

Date: 22 September 2019
Orbit: 444 x 479 km, 81.1° (Epoch: 14 October)

Event Time Altitude Azimuth Distance (km) Brightness Sun altitude
Rises 18:54:51 0° 343° (NNW) 2,455 6.7 -14.1°
Reaches altitude 10° 18:56:58 10° 338° (NNW) 1,578 5.7 -14.4°
Maximum altitude 19:00:17 48° 263° (W) 590 3.4 -14.9°
Drops below altitude 10° 19:03:36 10° 187° (S) 1,568 5.0 -15.4°
Enters shadow 19:05:29 - 182° (S) 2,348 5.9 -15.7°
